Location: Recife
(8.0585°S, 34.8848°W)
Time: 18:56:20
(UTC-03:00)

N. Korean satellite - Pass Details

Date: 27 September 2021
Orbit: 450 x 495 km, 97.3° (Epoch: 21 October)

Event Time Altitude Azimuth Distance (km) Brightness Sun altitude
Rises 04:30:45 0° 356° (N) 2,551 10.1 -9.6°
Reaches altitude 10° 04:32:55 10° 347° (NNW) 1,679 9.1 -9.1°
Maximum altitude 04:36:14 34° 280° (W) 823 7.2 -8.2°
Drops below altitude 10° 04:39:36 10° 213° (SSW) 1,699 9.0 -7.4°
Sets 04:41:49 0° 204° (SSW) 2,587 10.0 -6.9°
